Location: Hylvaty SDH
(49.9612°N, 16.4057°E)
Time: 00:46:11
(UTC+02:00)

Vanguard 3 - Visible Passes

Search period start: 12 August 2020 00:00
Search period end: 22 August 2020 00:00
Orbit: 509 x 3262 km, 33.3° (Epoch: 11 August)

Date Brightness Start Highest point End Pass type
(mag) Time Alt. Az. Time Alt. Az. Time Alt. Az.
12 Aug 11.3 02:48:06 10° SSE 02:55:11 13° SE 03:01:53 10° ESE visible
12 Aug 10.8 04:53:09 10° SSW 05:08:12 29° SSE 05:20:08 10° ESE visible
13 Aug 11.0 03:39:28 10° S 03:52:49 23° SSE 04:04:30 10° ESE visible
14 Aug 11.1 02:28:57 11° SSE 02:37:39 16° SE 02:46:50 10° ESE visible
14 Aug 10.7 04:34:47 10° SSW 04:50:47 33° SSE 05:03:53 10° ESE visible
15 Aug 10.9 03:23:19 14° S 03:35:15 26° SSE 03:48:15 10° E visible
16 Aug 11.0 02:13:07 15° SSE 02:20:01 19° SE 02:30:57 10° ESE visible
16 Aug 10.6 04:17:39 12° SSW 04:33:15 35° SSE 04:47:26 10° ESE visible
17 Aug 11.2 01:02:53 10° SE 01:05:17 10° SE 01:07:46 10° ESE visible
17 Aug 10.8 03:07:24 19° S 03:17:36 29° SSE 03:31:44 10° E visible
17 Aug 10.5 05:13:54 10° SW 05:31:33 42° S 05:45:43 10° ESE visible
18 Aug 10.8 01:57:09 19° SSE 02:02:20 21° SE 02:14:35 10° E visible
18 Aug 10.6 04:01:40 16° SSW 04:15:38 38° SSE 04:30:48 10° ESE visible
19 Aug 11.1 00:46:51 12° SE 00:47:37 12° SE 00:53:59 10° ESE visible
19 Aug 10.6 02:51:22 23° S 02:59:54 31° SSE 03:14:59 10° E visible
19 Aug 10.5 04:56:09 10° SW 05:13:59 44° S 05:29:05 10° ESE visible
20 Aug 10.7 01:41:04 22° SSE 01:44:36 23° SE 01:57:52 10° E visible
20 Aug 10.5 03:45:35 20° SSW 03:57:57 40° SSE 04:13:59 10° ESE visible
21 Aug 11.0 00:30:44 14° SE 00:30:44 14° SE 00:38:09 10° ESE visible
21 Aug 10.4 02:35:15 27° S 02:42:09 34° SSE 02:58:01 10° E visible
21 Aug 10.4 04:39:46 13° SW 04:56:21 45° S 05:12:18 10° ESE visible
